To NAV CANADA Home Page Login to a new session Search on AWWS site Feedback and Comments Disclaimer Vers la page française équivalente Tips FAQ What's new on the site To the Forecasts and Observations / NOTAM section To "File a Flight Plan" website Publications and other links Update of the User's profile FIC Telephone Numbers My Weather Data Folder Route Weather Data Regional Weather Data Local Weather Data To the Forecasts and Observations / NOTAM section
Request Generated 05/05/2016 at 18:08:21 UTC . Weather information available at that time is displayed.

METAR/TAF

SALLUIT/QC    

METAR CYZG 051800Z 09017G22KT 15SM FEW012 SCT025 BKN032 BKN100
M06/M10 A2961 RMK SF1SC2SC3AS1 SLP051=
METAR CYZG 051700Z 12017KT 15SM FEW015 FEW040 SCT100 SCT210 M06/M10
A2962 RMK SC1SC1AC1CI1 SLP054=
METAR CYZG 051600Z 13019KT 15SM FEW030 SCT045 SCT073 M06/M10 A2963
RMK SC2SC1AC1 SLP059=

CYZG - No TAF is issued for this station

Your time UTC time
Weather data provided by Environment Canada and NAV CANADA